Weather History for Winona, MN

Change the Weather History Date:

Saturday, July 27, 2013

  Actual Average Record
Temperature  
Mean Temperature 54 °F -  
Max Temperature 60 °F 84 °F 93 °F (2006)
Min Temperature 48 °F 61 °F 48 °F (2013)
Degree Days  
Heating Degree Days 11    
Growing Degree Days 4 (Base 50)    
Moisture  
Dew Point 48 °F    
Average Humidity 79    
Maximum Humidity 94    
Minimum Humidity 55    
Precipitation  
Precipitation 0.06 in - - ()
Sea Level Pressure  
Sea Level Pressure 29.98 in    
Wind  
Wind Speed 9 mph (NW)    
Max Wind Speed 14 mph    
Max Gust Speed 23 mph    
Visibility 10 miles    
Events Rain    
Averages and records for this station are not official NWS values.
T = Trace of Precipitation, MM = Missing Value Source: NWS Daily Summary

Daily Weather History Graph

Daily Weather History Graph

Search for Another Location

Airport:

Trip Planner

Search our weather history database for the weather conditions in past years. The results will help you decide how hot, cold, wet, or windy it might be!

Date:

Astronomy

Jul. 27, 2013 Rise Set
Actual Time 5:49 AM CDT 8:36 PM CDT
Civil Twilight 5:16 AM CDT 9:09 PM CDT
Nautical Twilight 4:33 AM CDT 9:52 PM CDT
Astronomical Twilight 3:44 AM CDT 10:41 PM CDT
Moon 11:08 PM CDT (7/27) 11:45 AM CDT (7/27)
Length of Visible Light 15h 53m
Length of Day
14h 46m
Waning Gibbous, 70% of the Moon is Illuminated
Jul 27
Waning Gibbous
Jul 29
Last Quarter
Aug 6
New
Aug 14
First Quarter
Aug 20
Full

Hourly Weather History & Observations

Time (CDT) Temp. Dew Point Humidity Pressure Visibility Wind Dir Wind Speed Gust Speed Precip Events Conditions
12:15 AM 55.4 °F 50.0 °F 82% 30.02 in 10.0 mi NNW 8.1 mph - N/A   Scattered Clouds
12:35 AM 55.4 °F 48.2 °F 77% 30.02 in 10.0 mi NNW 10.4 mph - N/A   Clear
12:55 AM 55.4 °F 48.2 °F 77% 30.01 in 10.0 mi NNW 8.1 mph 16.1 mph N/A   Scattered Clouds
1:15 AM 55.4 °F 46.4 °F 72% 30.02 in 10.0 mi NNW 9.2 mph 16.1 mph N/A   Overcast
1:36 AM 55.4 °F 48.2 °F 77% 30.02 in 10.0 mi North 5.8 mph - N/A   Overcast
1:55 AM 53.6 °F 48.2 °F 82% 30.02 in 10.0 mi NNW 8.1 mph - N/A   Overcast
2:15 AM 53.6 °F 50.0 °F 88% 30.03 in 5.0 mi NNW 8.1 mph - N/A   Overcast
2:36 AM 53.6 °F 51.8 °F 94% 30.03 in 7.0 mi NW 8.1 mph - N/A   Overcast
2:55 AM 53.6 °F 50.0 °F 88% 30.03 in 10.0 mi NNW 8.1 mph - N/A   Overcast
3:15 AM 53.6 °F 50.0 °F 88% 30.03 in 10.0 mi North 6.9 mph 16.1 mph N/A   Overcast
3:36 AM 53.6 °F 50.0 °F 88% 30.03 in 10.0 mi NNW 12.7 mph - N/A   Overcast
3:55 AM 51.8 °F 50.0 °F 94% 30.02 in 10.0 mi NW 8.1 mph - N/A   Overcast
4:15 AM 51.8 °F 48.2 °F 88% 30.02 in 10.0 mi NNW 9.2 mph 16.1 mph N/A   Scattered Clouds
4:36 AM 50.0 °F 46.4 °F 87% 30.02 in 10.0 mi NNW 8.1 mph - N/A   Scattered Clouds
4:55 AM 50.0 °F 44.6 °F 82% 30.02 in 10.0 mi NNW 6.9 mph - N/A   Clear
5:15 AM 48.2 °F 44.6 °F 87% 30.03 in 10.0 mi NNW 6.9 mph - N/A   Clear
5:36 AM 48.2 °F 44.6 °F 87% 30.02 in 10.0 mi NW 8.1 mph - N/A   Clear
5:55 AM 48.2 °F 44.6 °F 87% 30.03 in 10.0 mi NNW 6.9 mph - N/A   Clear
6:15 AM 48.2 °F 44.6 °F 87% 30.03 in 10.0 mi NNW 8.1 mph - N/A   Clear
6:36 AM 50.0 °F 44.6 °F 82% 30.03 in 10.0 mi NNW 5.8 mph - N/A   Clear
6:55 AM 51.8 °F 44.6 °F 76% 30.03 in 10.0 mi North 3.5 mph - N/A   Clear
7:15 AM 53.6 °F 46.4 °F 77% 30.04 in 10.0 mi Calm Calm - N/A   Clear
7:36 AM 53.6 °F 46.4 °F 77% 30.03 in 10.0 mi NNW 4.6 mph - N/A   Mostly Cloudy
7:55 AM 53.6 °F 46.4 °F 77% 30.03 in 10.0 mi WNW 6.9 mph - N/A   Mostly Cloudy
8:15 AM 53.6 °F 44.6 °F 72% 30.02 in 10.0 mi WNW 8.1 mph - N/A   Mostly Cloudy
8:36 AM 55.4 °F 46.4 °F 72% 30.02 in 10.0 mi WNW 8.1 mph - N/A   Mostly Cloudy
8:55 AM 55.4 °F 46.4 °F 72% 30.02 in 10.0 mi NW 10.4 mph 16.1 mph N/A   Overcast
9:15 AM 55.4 °F 46.4 °F 72% 30.01 in 10.0 mi NW 11.5 mph 17.3 mph N/A   Overcast
9:35 AM 55.4 °F 46.4 °F 72% 30.00 in 10.0 mi NNW 12.7 mph - N/A   Overcast
9:55 AM 55.4 °F 44.6 °F 67% 30.00 in 10.0 mi NW 10.4 mph 17.3 mph N/A   Overcast
10:16 AM 59.0 °F 44.6 °F 59% 29.99 in 10.0 mi WNW 11.5 mph 18.4 mph N/A   Overcast
10:35 AM 60.8 °F 44.6 °F 55% 29.99 in 10.0 mi NW 9.2 mph - N/A   Mostly Cloudy
10:55 AM 59.0 °F 44.6 °F 59% 29.98 in 10.0 mi NW 11.5 mph 16.1 mph N/A   Mostly Cloudy
11:16 AM 59.0 °F 44.6 °F 59% 29.98 in 10.0 mi NW 12.7 mph 18.4 mph N/A   Overcast
11:35 AM 59.0 °F 44.6 °F 59% 29.97 in 10.0 mi NW 11.5 mph - N/A   Overcast
11:55 AM 59.0 °F 44.6 °F 59% 29.97 in 10.0 mi NW 12.7 mph 17.3 mph N/A   Overcast
12:16 PM 60.8 °F 44.6 °F 55% 29.96 in 10.0 mi WNW 8.1 mph 16.1 mph N/A   Overcast
12:35 PM 60.8 °F 44.6 °F 55% 29.96 in 10.0 mi WNW 9.2 mph - N/A   Overcast
12:55 PM 59.0 °F 44.6 °F 59% 29.96 in 10.0 mi WNW 12.7 mph 23.0 mph N/A   Overcast
1:16 PM 59.0 °F 44.6 °F 59% 29.96 in 10.0 mi NW 10.4 mph - N/A   Overcast
1:35 PM 59.0 °F 44.6 °F 59% 29.95 in 10.0 mi NW 10.4 mph 17.3 mph N/A   Overcast
1:55 PM 55.4 °F 48.2 °F 77% 29.96 in 10.0 mi NNW 11.5 mph 19.6 mph N/A Rain Light Rain
2:16 PM 55.4 °F 46.4 °F 72% 29.96 in 10.0 mi WNW 11.5 mph 20.7 mph N/A Rain Light Rain
2:35 PM 55.4 °F 48.2 °F 77% 29.96 in 10.0 mi NNW 13.8 mph 21.9 mph N/A   Drizzle
2:55 PM 55.4 °F 50.0 °F 82% 29.96 in 10.0 mi NW 12.7 mph 19.6 mph N/A Rain Light Rain
3:16 PM 55.4 °F 50.0 °F 82% 29.97 in 10.0 mi NW 12.7 mph 18.4 mph N/A Rain Light Rain
3:35 PM 53.6 °F 46.4 °F 77% 29.97 in 10.0 mi NW 12.7 mph 23.0 mph N/A Rain Light Rain
3:55 PM 53.6 °F 46.4 °F 77% 29.96 in 10.0 mi NW 11.5 mph - N/A Rain Light Rain
4:16 PM 55.4 °F 46.4 °F 72% 29.96 in 10.0 mi NW 8.1 mph - N/A   Scattered Clouds
4:35 PM 55.4 °F 48.2 °F 77% 29.95 in 10.0 mi NW 10.4 mph - N/A   Light Drizzle
4:55 PM 55.4 °F 48.2 °F 77% 29.95 in 10.0 mi WNW 8.1 mph - N/A Rain Rain
5:16 PM 55.4 °F 50.0 °F 82% 29.95 in 10.0 mi WNW 9.2 mph - N/A   Drizzle
5:35 PM 53.6 °F 50.0 °F 88% 29.95 in 7.0 mi NW 9.2 mph - 0.03 in Rain Light Rain
5:55 PM 55.4 °F 50.0 °F 82% 29.95 in 10.0 mi WNW 5.8 mph 9.2 mph 0.03 in   Light Drizzle
6:16 PM 55.4 °F 51.8 °F 88% 29.94 in 10.0 mi West 3.5 mph - N/A Rain Light Rain
6:35 PM 55.4 °F 51.8 °F 88% 29.94 in 10.0 mi West 5.8 mph - N/A   Light Drizzle
6:55 PM 55.4 °F 51.8 °F 88% 29.94 in 10.0 mi WNW 5.8 mph - N/A Rain Light Rain
7:16 PM 55.4 °F 51.8 °F 88% 29.93 in 10.0 mi NW 6.9 mph - N/A   Light Drizzle
7:35 PM 55.4 °F 51.8 °F 88% 29.93 in 10.0 mi WNW 9.2 mph - N/A   Light Drizzle
7:55 PM 55.4 °F 51.8 °F 88% 29.93 in 10.0 mi NNW 9.2 mph - N/A Rain Rain
8:15 PM 53.6 °F 50.0 °F 88% 29.93 in 10.0 mi NNW 11.5 mph 17.3 mph N/A Rain Rain
8:35 PM 53.6 °F 51.8 °F 94% 29.93 in 5.0 mi NW 8.1 mph - 0.01 in Rain Rain
8:55 PM 53.6 °F 51.8 °F 94% 29.93 in 10.0 mi WNW 4.6 mph - 0.02 in   Drizzle
9:15 PM 53.6 °F 51.8 °F 94% 29.92 in 10.0 mi WNW 5.8 mph - N/A Rain Rain
9:36 PM 53.6 °F 51.8 °F 94% 29.92 in 10.0 mi WNW 4.6 mph - 0.01 in Rain Light Rain
9:55 PM 53.6 °F 50.0 °F 88% 29.92 in 10.0 mi WNW 6.9 mph - 0.01 in   Light Drizzle
10:15 PM 53.6 °F 50.0 °F 88% 29.92 in 10.0 mi WNW 6.9 mph - N/A   Overcast
10:36 PM 53.6 °F 50.0 °F 88% 29.92 in 10.0 mi WNW 8.1 mph - N/A   Overcast
10:55 PM 53.6 °F 50.0 °F 88% 29.92 in 10.0 mi WNW 6.9 mph - N/A   Light Drizzle
11:15 PM 53.6 °F 50.0 °F 88% 29.92 in 10.0 mi WNW 6.9 mph - N/A Rain Light Rain
11:36 PM 53.6 °F 50.0 °F 88% 29.92 in 10.0 mi WNW 6.9 mph - N/A   Overcast
11:55 PM 53.6 °F 50.0 °F 88% 29.92 in 10.0 mi WNW 8.1 mph - N/A   Overcast